SCP
0 0 0 0 0 0 0 0 0 0 0 0 0 0 0 0 0 0 0 0 0 0 0 0 0 0 0 0 0 0 0 0 0 0 0 -0 0 0 0 0 0 0 0
0 0 0 0 0 0 0 0 0 0 0 0 0 0 0 0 0 0 0 0 0 0 0 0 0 0 0 0 0 0 0 0 0 0 -0 -0 0 0 0 0 0 0 0
0 0 0 0 0 0 0 0 0 0 0 0 0 0 0 0 0 0 0 0 0 0 0 0 0 0 0 0 0 0 0 0 0 0 0 -0 -0 0 0 0 0 0 0
0 0 0 0 0 0 0 0 0 0 0 0 0 0 0 0 0 0 0 0 0 0 0 0 0 0 0 0 0 0 0 0 0 0 0 -0 -0 0 0 0 -0 0 0
0 0 0 0 0 0 0 0 0 0 0 0 0 0 0 0 0 0 0 0 0 0 0 0 0 0 -0 -0 0 0 0 0 0 0 0 0 -0 -0 0 0 0 -0 -0
0 0 0 0 0 0 0 0 0 0 0 0 0 0 0 0 0 0 0 0 0 0 0 0 0 0 0 0 0 -0 0 0 0 0 0 0 0 -0 0 0 0 0 -0
0 0 0 0 0 0 0 0 0 0 0 0 0 0 0 0 0 0 0 0 0 0 0 0 0 0 0 -0 -0 -0 0 0 0 0 0 0 0 0 0 0 0 0 0
0 0 0 0 0 0 0 0 0 0 0 0 0 0 0 0 0 0 0 0 0 0 0 0 0 0 -0 -0 -0 0 0 0 0 0 0 0 0 0 0 0 0 0 0
0 0 0 0 0 0 0 0 0 0 0 0 0 0 0 0 0 0 0 0 0 0 0 0 0 0 -0 0 0 0 0 0 0 0 0 0 0 0 0 0 0 0 0
0 0 0 0 0 0 0 0 0 0 0 0 0 0 0 0 0 0 0 0 0 0 0 0 0 0 0 0 0 0 0 0 0 0 0 0 0 0 0 0 0 0 0
0 0 0 0 0 0 0 0 0 0 0 0 0 0 0 0 0 0 0 0 0 0 0 0 0 0 0 0 0 0 0 0 0 -0 -0 -0 0 0 0 0 0 0 0
0 0 0 0 0 0 0 0 0 0 0 0 0 0 0 0 0 0 0 0 0 0 0 0 0 0 0 0 0 0 0 0 -0 -0 -0 -0 -0 0 0 0 0 0 0
0 0 0 0 0 0 0 0 0 0 0 0 0 0 0 0 0 0 0 0 0 0 0 0 0 0 0 0 0 0 0 -0 -0 -0 -0 -0 0 0 0 0 0 0 0
0 0 0 0 0 0 0 0 0 0 0 0 0 0 0 0 0 0 0 0 0 0 0 0 0 0 0 0 0 0 0 -0 -0 -0 -0 -0 0 0 0 0 0 0 0
0 0 0 0 0 0 0 0 0 0 0 0 0 0 0 0 0 0 0 0 0 0 0 0 0 0 0 0 0 0 0 -0 -0 -0 -0 -0 0 0 0 0 0 0 0
0 0 0 0 0 0 0 0 0 0 0 0 0 0 0 0 0 0 0 0 0 0 0 0 0 0 0 0 0 0 0 -0 -0 -0 -0 -0 -0 0 0 0 0 0 0
0 0 0 0 0 0 0 0 0 0 0 0 0 0 0 0 0 0 0 0 0 0 0 0 0 0 0 0 0 0 0 -0 -0 -0 -0 -0 -0 0 0 0 0 0 0
0 0 0 0 0 0 0 0 0 0 0 0 0 0 0 0 0 0 0 0 0 0 0 0 0 0 0 0 0 0 0 -0 -0 -0 -0 -0 -0 0 0 0 0 0 0
0 0 0 0 0 0 0 0 0 0 0 0 0 0 0 0 0 0 0 0 0 0 0 0 0 0 0 0 0 0 -0 -0 -0 -0 -0 -0 0 0 0 0 0 0 0
0 0 0 0 0 0 0 0 0 0 0 0 0 0 0 0 0 0 0 0 0 0 0 0 0 0 0 0 0 0 -0 -0 -0 -0 -0 0 0 0 0 0 0 0 0
0 0 0 0 0 0 0 0 0 0 0 0 0 0 0 0 0 0 0 0 0 0 0 0 0 0 0 0 0 -0 -0 -0 -0 -0 -0 0 0 0 0 0 0 0 0
0 0 0 0 0 0 0 0 0 0 0 0 0 0 0 0 0 0 0 0 0 0 0 0 0 0 0 0 -0 -0 -0 -0 -0 -0 -0 0 0 0 0 0 0 0 0
0 0 0 0 0 0 0 0 0 0 0 0 0 0 0 0 0 0 0 0 0 0 0 0 0 0 0 -0 -0 -0 -0 -0 -0 -0 0 0 0 0 0 0 0 0 0
0 0 0 0 0 0 0 0 0 0 0 0 0 0 0 0 0 0 0 0 0 0 0 0 0 0 -0 -0 -0 -0 -0 -0 -0 -0 -0 0 0 0 0 0 0 0 0
0 0 0 0 0 0 0 0 0 0 0 0 0 0 0 0 0 0 0 0 0 0 0 0 0 -0 -0 -0 -0 -0 -0 -0 -0 -0 -0 0 0 0 0 0 0 0 0
0 0 0 0 0 0 0 0 0 0 0 0 0 0 0 0 0 0 0 0 0 0 0 0 0 -0 -0 -0 -0 -0 -0 -0 -0 -0 0 0 0 0 0 0 0 0 0
Wind_Speed_500mb
21 26 33 38 37 37 37 39 41 45 48 50 50 50 52 54 56 58 58 57 57 58 57 57 58 60 61 62 64 66 71 67 81 109 100 106 105 100 92 80 85 94 97
24 29 36 43 41 38 38 40 43 46 48 51 51 52 52 53 56 58 58 59 59 59 60 61 62 63 63 65 67 70 73 77 74 99 99 108 106 104 97 85 85 81 91
30 34 39 43 41 38 39 42 46 49 49 51 52 53 53 53 55 57 58 58 58 59 59 62 63 65 67 68 68 71 76 80 84 83 100 102 105 102 102 89 77 81 82
37 39 43 43 40 37 39 43 49 51 51 53 53 54 54 55 56 57 58 57 56 57 59 61 63 64 67 68 69 73 76 80 84 83 90 99 99 103 95 90 93 69 78
42 45 47 48 42 37 40 45 49 53 55 55 55 54 56 57 56 58 58 57 57 57 57 59 62 65 66 67 67 70 69 75 79 83 94 97 97 98 92 103 96 90 83
47 49 53 48 41 41 45 47 52 54 55 56 56 56 56 57 57 57 58 58 55 57 59 59 63 67 70 73 74 67 55 63 72 83 95 96 99 85 99 99 101 97 96
50 52 53 46 45 45 48 53 55 56 56 56 57 58 56 55 58 57 56 57 56 57 59 62 66 68 75 81 79 78 80 82 78 73 82 85 91 93 96 100 99 93 94
49 53 49 48 50 52 54 57 56 57 57 58 57 58 56 55 58 58 57 56 56 57 59 63 67 73 77 77 74 86 95 91 87 80 69 78 87 92 87 91 94 89 94
46 49 50 51 56 57 59 58 56 58 57 58 57 55 57 55 56 58 57 58 60 60 60 63 66 74 75 62 77 90 94 92 88 86 76 83 82 75 76 80 77 79 87
48 51 52 54 58 58 60 59 59 58 56 56 54 53 56 57 54 56 55 57 61 63 62 64 65 69 56 66 72 79 90 91 95 100 95 80 72 73 71 67 67 66 71
55 61 62 60 58 58 61 59 56 54 55 55 55 52 55 55 52 50 48 51 53 60 62 65 66 65 61 65 65 75 74 78 91 92 90 86 76 74 72 67 60 59 58
69 75 73 63 58 59 60 57 55 54 55 53 56 57 53 52 50 48 48 42 40 50 55 62 63 60 66 73 74 75 75 77 81 83 81 80 76 75 72 69 60 56 52
74 74 67 57 57 58 58 56 56 54 55 54 57 60 56 51 47 45 46 39 41 43 50 54 64 71 71 71 71 73 73 73 75 77 76 76 72 73 71 69 57 51 48
76 71 63 59 56 56 57 57 57 55 55 57 57 58 56 56 52 46 41 41 42 51 57 60 70 67 66 66 69 71 73 71 71 73 73 71 68 68 66 62 58 48 44
70 66 59 56 52 54 56 57 58 55 54 57 56 55 55 57 52 41 38 41 46 48 57 68 67 66 68 69 70 70 73 73 71 69 71 71 65 66 65 60 49 44 39
64 57 50 47 47 52 56 58 56 55 55 56 54 48 52 49 41 39 39 41 42 44 58 62 65 64 66 67 71 74 72 75 72 70 69 67 64 65 67 60 50 42 34
56 52 49 50 53 55 55 57 58 51 56 55 53 51 51 52 48 41 39 41 42 45 57 57 62 61 62 64 67 69 73 72 72 68 65 65 62 60 62 62 55 47 35
50 51 50 50 53 54 55 56 58 61 58 52 49 52 51 54 51 46 47 46 51 46 52 58 58 59 59 61 64 66 67 68 69 67 62 62 61 57 60 60 56 51 41
57 55 52 53 54 56 57 60 59 61 60 57 46 45 47 53 48 45 49 55 57 54 52 53 52 55 56 57 59 62 62 63 65 66 60 59 58 55 54 57 57 48 40
62 59 59 61 63 64 64 62 61 60 60 57 53 46 44 50 48 46 47 51 51 51 51 53 52 52 54 55 56 59 59 59 61 62 58 55 54 52 52 54 54 54 44
70 70 64 63 64 64 67 67 63 60 61 60 56 47 47 52 48 47 44 47 49 49 52 54 53 51 52 53 52 55 55 55 56 59 56 52 51 51 48 47 48 45 43
66 67 66 64 63 62 61 62 64 65 65 64 59 50 46 52 52 49 46 46 47 48 50 54 53 50 50 51 51 54 53 52 53 55 55 50 48 46 45 44 43 42 39
62 62 62 63 60 62 62 60 60 61 63 63 60 57 50 49 49 51 49 48 48 48 47 50 51 50 48 48 48 51 53 50 50 52 53 50 46 44 43 42 42 40 37
59 59 58 57 57 57 59 60 60 59 58 59 57 54 51 48 48 49 48 48 48 47 48 48 49 48 49 46 45 45 48 46 46 47 49 49 44 41 41 40 39 36 36
57 58 56 54 54 54 56 57 57 55 56 57 55 53 51 48 49 47 46 47 47 47 48 49 46 46 46 45 46 44 44 43 42 44 46 45 42 39 38 39 38 35 31
58 59 59 55 53 52 52 52 54 54 55 53 53 52 50 48 48 47 47 46 47 48 50 49 45 45 43 42 44 43 41 42 39 40 41 40 39 35 34 33 33 32 29
Wind_Direction_500mb
302 316 323 320 311 310 316 319 325 327 327 328 329 330 331 332 333 334 335 336 335 335 335 337 337 336 335 332 329 325 320 317 307 312 317 325 325 325 318 302 294 287 281
289 309 319 318 308 300 303 309 316 321 321 323 324 325 327 328 329 330 331 332 332 332 333 333 334 333 331 330 327 325 322 320 313 310 317 322 324 325 325 314 297 293 286
280 302 314 319 310 299 294 302 310 314 315 317 318 320 321 323 325 327 328 328 328 330 330 331 332 330 330 329 326 324 321 318 315 313 310 317 321 323 325 322 313 296 302
275 295 310 315 305 293 288 297 305 308 310 313 314 315 317 321 323 324 325 326 327 328 328 329 330 329 329 329 327 324 321 317 316 315 310 313 317 321 322 321 316 306 303
274 291 308 308 302 293 292 298 301 305 307 309 310 311 313 317 320 322 323 323 323 324 325 327 327 327 328 329 324 324 322 319 318 312 310 311 312 318 318 320 318 310 303
278 288 304 302 300 297 297 298 299 302 303 305 307 309 311 315 318 319 318 317 319 319 322 324 324 326 325 324 323 325 316 313 307 306 305 304 305 309 313 315 314 312 308
275 289 297 297 297 300 300 298 300 300 299 302 305 307 309 311 314 315 315 314 318 320 322 323 324 325 323 324 327 324 315 312 308 303 302 303 304 305 310 311 309 302 298
280 291 296 295 294 296 300 300 298 296 295 298 302 304 305 311 311 311 312 313 314 317 321 325 325 325 327 332 329 315 313 315 318 316 303 301 298 300 307 305 303 298 296
295 302 300 293 287 289 295 299 296 293 291 294 298 300 303 308 308 309 311 313 314 317 321 322 325 328 331 329 321 318 317 318 316 312 305 302 302 303 305 305 297 299 289
304 303 300 289 282 283 292 294 293 289 287 290 293 297 302 305 307 309 314 314 312 315 316 324 328 327 327 325 322 319 319 322 319 315 315 307 306 305 306 302 295 299 287
296 298 298 289 283 283 288 289 290 285 286 289 290 295 300 301 304 305 307 308 311 314 318 320 324 327 326 325 326 322 322 318 315 315 314 312 311 311 311 305 295 294 286
298 300 299 286 278 280 285 285 284 282 284 286 290 295 297 297 300 303 304 304 307 309 314 318 319 323 324 325 327 326 324 320 318 317 317 314 316 317 315 311 303 294 281
298 300 296 283 275 278 280 281 279 281 284 285 289 293 295 294 296 299 299 302 311 310 311 314 308 319 320 323 327 328 328 326 326 325 322 319 320 321 319 316 305 301 292
300 299 292 280 276 275 277 279 279 280 282 285 289 291 293 294 298 298 301 307 320 320 320 310 305 313 318 322 325 329 333 332 330 329 327 323 322 324 326 326 318 315 308
299 296 288 280 274 273 276 278 275 275 278 283 287 287 289 292 300 305 308 307 311 310 302 297 308 319 324 327 328 330 334 336 333 331 331 330 328 330 331 332 327 322 317
298 296 287 278 274 274 276 273 272 276 279 283 287 283 289 289 291 290 298 297 298 302 291 304 314 320 323 326 327 330 334 337 335 333 334 335 332 334 336 336 337 333 328
300 295 287 278 277 276 273 271 274 272 279 279 279 275 276 281 282 289 291 296 297 291 299 305 310 315 321 325 325 327 331 336 335 333 334 336 335 333 339 340 342 340 336
300 295 289 283 279 276 276 275 277 281 281 274 274 276 279 282 281 286 294 293 294 295 297 301 307 312 317 321 323 325 329 334 335 333 334 336 338 334 337 341 345 345 343
304 298 289 280 274 273 273 275 276 277 277 277 272 271 278 278 280 286 288 291 296 298 297 299 305 311 315 317 320 323 326 331 334 333 334 335 338 336 336 339 343 347 345
298 296 292 286 281 276 273 273 274 276 276 276 277 280 276 271 274 275 279 284 287 291 297 302 306 309 312 315 317 320 324 329 333 334 335 335 337 339 336 338 344 347 351
296 292 288 285 282 281 279 276 274 272 271 272 273 275 276 275 275 278 279 282 288 293 297 300 304 308 310 313 315 317 321 326 331 333 335 335 336 339 338 338 340 348 351
297 293 288 282 278 276 277 277 276 273 273 273 274 272 271 272 280 282 283 285 287 289 293 297 302 306 309 311 314 314 319 323 328 331 334 335 336 339 342 339 341 349 355
303 299 294 288 283 277 273 270 268 269 273 274 275 275 271 271 275 279 283 285 286 288 291 295 299 303 305 308 310 309 313 321 324 329 332 334 335 336 342 343 343 348 355
305 303 299 294 290 285 280 277 276 273 270 269 269 271 271 271 271 274 279 282 284 288 291 294 296 301 302 304 306 305 308 315 320 324 326 330 331 332 335 341 341 345 352
311 308 304 299 294 291 285 281 277 274 274 273 272 271 271 271 272 275 277 281 285 289 291 293 296 297 298 300 302 303 305 311 316 319 324 327 329 327 330 335 341 342 347
314 311 307 302 297 297 291 288 282 279 277 275 274 274 274 272 273 275 277 282 286 289 290 292 295 294 294 295 297 301 304 307 311 312 317 325 327 325 321 327 335 341 339
Wind_Speed_850mb
21 26 33 38 37 37 37 39 41 45 48 50 50 50 52 54 56 58 58 57 57 58 57 57 58 60 61 62 64 66 71 67 81 109 100 106 105 100 92 80 85 94 97
24 29 36 43 41 38 38 40 43 46 48 51 51 52 52 53 56 58 58 59 59 59 60 61 62 63 63 65 67 70 73 77 74 99 99 108 106 104 97 85 85 81 91
30 34 39 43 41 38 39 42 46 49 49 51 52 53 53 53 55 57 58 58 58 59 59 62 63 65 67 68 68 71 76 80 84 83 100 102 105 102 102 89 77 81 82
37 39 43 43 40 37 39 43 49 51 51 53 53 54 54 55 56 57 58 57 56 57 59 61 63 64 67 68 69 73 76 80 84 83 90 99 99 103 95 90 93 69 78
42 45 47 48 42 37 40 45 49 53 55 55 55 54 56 57 56 58 58 57 57 57 57 59 62 65 66 67 67 70 69 75 79 83 94 97 97 98 92 103 96 90 83
47 49 53 48 41 41 45 47 52 54 55 56 56 56 56 57 57 57 58 58 55 57 59 59 63 67 70 73 74 67 55 63 72 83 95 96 99 85 99 99 101 97 96
50 52 53 46 45 45 48 53 55 56 56 56 57 58 56 55 58 57 56 57 56 57 59 62 66 68 75 81 79 78 80 82 78 73 82 85 91 93 96 100 99 93 94
49 53 49 48 50 52 54 57 56 57 57 58 57 58 56 55 58 58 57 56 56 57 59 63 67 73 77 77 74 86 95 91 87 80 69 78 87 92 87 91 94 89 94
46 49 50 51 56 57 59 58 56 58 57 58 57 55 57 55 56 58 57 58 60 60 60 63 66 74 75 62 77 90 94 92 88 86 76 83 82 75 76 80 77 79 87
48 51 52 54 58 58 60 59 59 58 56 56 54 53 56 57 54 56 55 57 61 63 62 64 65 69 56 66 72 79 90 91 95 100 95 80 72 73 71 67 67 66 71
55 61 62 60 58 58 61 59 56 54 55 55 55 52 55 55 52 50 48 51 53 60 62 65 66 65 61 65 65 75 74 78 91 92 90 86 76 74 72 67 60 59 58
69 75 73 63 58 59 60 57 55 54 55 53 56 57 53 52 50 48 48 42 40 50 55 62 63 60 66 73 74 75 75 77 81 83 81 80 76 75 72 69 60 56 52
74 74 67 57 57 58 58 56 56 54 55 54 57 60 56 51 47 45 46 39 41 43 50 54 64 71 71 71 71 73 73 73 75 77 76 76 72 73 71 69 57 51 48
76 71 63 59 56 56 57 57 57 55 55 57 57 58 56 56 52 46 41 41 42 51 57 60 70 67 66 66 69 71 73 71 71 73 73 71 68 68 66 62 58 48 44
70 66 59 56 52 54 56 57 58 55 54 57 56 55 55 57 52 41 38 41 46 48 57 68 67 66 68 69 70 70 73 73 71 69 71 71 65 66 65 60 49 44 39
64 57 50 47 47 52 56 58 56 55 55 56 54 48 52 49 41 39 39 41 42 44 58 62 65 64 66 67 71 74 72 75 72 70 69 67 64 65 67 60 50 42 34
56 52 49 50 53 55 55 57 58 51 56 55 53 51 51 52 48 41 39 41 42 45 57 57 62 61 62 64 67 69 73 72 72 68 65 65 62 60 62 62 55 47 35
50 51 50 50 53 54 55 56 58 61 58 52 49 52 51 54 51 46 47 46 51 46 52 58 58 59 59 61 64 66 67 68 69 67 62 62 61 57 60 60 56 51 41
57 55 52 53 54 56 57 60 59 61 60 57 46 45 47 53 48 45 49 55 57 54 52 53 52 55 56 57 59 62 62 63 65 66 60 59 58 55 54 57 57 48 40
62 59 59 61 63 64 64 62 61 60 60 57 53 46 44 50 48 46 47 51 51 51 51 53 52 52 54 55 56 59 59 59 61 62 58 55 54 52 52 54 54 54 44
70 70 64 63 64 64 67 67 63 60 61 60 56 47 47 52 48 47 44 47 49 49 52 54 53 51 52 53 52 55 55 55 56 59 56 52 51 51 48 47 48 45 43
66 67 66 64 63 62 61 62 64 65 65 64 59 50 46 52 52 49 46 46 47 48 50 54 53 50 50 51 51 54 53 52 53 55 55 50 48 46 45 44 43 42 39
62 62 62 63 60 62 62 60 60 61 63 63 60 57 50 49 49 51 49 48 48 48 47 50 51 50 48 48 48 51 53 50 50 52 53 50 46 44 43 42 42 40 37
59 59 58 57 57 57 59 60 60 59 58 59 57 54 51 48 48 49 48 48 48 47 48 48 49 48 49 46 45 45 48 46 46 47 49 49 44 41 41 40 39 36 36
57 58 56 54 54 54 56 57 57 55 56 57 55 53 51 48 49 47 46 47 47 47 48 49 46 46 46 45 46 44 44 43 42 44 46 45 42 39 38 39 38 35 31
58 59 59 55 53 52 52 52 54 54 55 53 53 52 50 48 48 47 47 46 47 48 50 49 45 45 43 42 44 43 41 42 39 40 41 40 39 35 34 33 33 32 29
Wind_Direction_850mb
302 316 323 320 311 310 316 319 325 327 327 328 329 330 331 332 333 334 335 336 335 335 335 337 337 336 335 332 329 325 320 317 307 312 317 325 325 325 318 302 294 287 281
289 309 319 318 308 300 303 309 316 321 321 323 324 325 327 328 329 330 331 332 332 332 333 333 334 333 331 330 327 325 322 320 313 310 317 322 324 325 325 314 297 293 286
280 302 314 319 310 299 294 302 310 314 315 317 318 320 321 323 325 327 328 328 328 330 330 331 332 330 330 329 326 324 321 318 315 313 310 317 321 323 325 322 313 296 302
275 295 310 315 305 293 288 297 305 308 310 313 314 315 317 321 323 324 325 326 327 328 328 329 330 329 329 329 327 324 321 317 316 315 310 313 317 321 322 321 316 306 303
274 291 308 308 302 293 292 298 301 305 307 309 310 311 313 317 320 322 323 323 323 324 325 327 327 327 328 329 324 324 322 319 318 312 310 311 312 318 318 320 318 310 303
278 288 304 302 300 297 297 298 299 302 303 305 307 309 311 315 318 319 318 317 319 319 322 324 324 326 325 324 323 325 316 313 307 306 305 304 305 309 313 315 314 312 308
275 289 297 297 297 300 300 298 300 300 299 302 305 307 309 311 314 315 315 314 318 320 322 323 324 325 323 324 327 324 315 312 308 303 302 303 304 305 310 311 309 302 298
280 291 296 295 294 296 300 300 298 296 295 298 302 304 305 311 311 311 312 313 314 317 321 325 325 325 327 332 329 315 313 315 318 316 303 301 298 300 307 305 303 298 296
295 302 300 293 287 289 295 299 296 293 291 294 298 300 303 308 308 309 311 313 314 317 321 322 325 328 331 329 321 318 317 318 316 312 305 302 302 303 305 305 297 299 289
304 303 300 289 282 283 292 294 293 289 287 290 293 297 302 305 307 309 314 314 312 315 316 324 328 327 327 325 322 319 319 322 319 315 315 307 306 305 306 302 295 299 287
296 298 298 289 283 283 288 289 290 285 286 289 290 295 300 301 304 305 307 308 311 314 318 320 324 327 326 325 326 322 322 318 315 315 314 312 311 311 311 305 295 294 286
298 300 299 286 278 280 285 285 284 282 284 286 290 295 297 297 300 303 304 304 307 309 314 318 319 323 324 325 327 326 324 320 318 317 317 314 316 317 315 311 303 294 281
298 300 296 283 275 278 280 281 279 281 284 285 289 293 295 294 296 299 299 302 311 310 311 314 308 319 320 323 327 328 328 326 326 325 322 319 320 321 319 316 305 301 292
300 299 292 280 276 275 277 279 279 280 282 285 289 291 293 294 298 298 301 307 320 320 320 310 305 313 318 322 325 329 333 332 330 329 327 323 322 324 326 326 318 315 308
299 296 288 280 274 273 276 278 275 275 278 283 287 287 289 292 300 305 308 307 311 310 302 297 308 319 324 327 328 330 334 336 333 331 331 330 328 330 331 332 327 322 317
298 296 287 278 274 274 276 273 272 276 279 283 287 283 289 289 291 290 298 297 298 302 291 304 314 320 323 326 327 330 334 337 335 333 334 335 332 334 336 336 337 333 328
300 295 287 278 277 276 273 271 274 272 279 279 279 275 276 281 282 289 291 296 297 291 299 305 310 315 321 325 325 327 331 336 335 333 334 336 335 333 339 340 342 340 336
300 295 289 283 279 276 276 275 277 281 281 274 274 276 279 282 281 286 294 293 294 295 297 301 307 312 317 321 323 325 329 334 335 333 334 336 338 334 337 341 345 345 343
304 298 289 280 274 273 273 275 276 277 277 277 272 271 278 278 280 286 288 291 296 298 297 299 305 311 315 317 320 323 326 331 334 333 334 335 338 336 336 339 343 347 345
298 296 292 286 281 276 273 273 274 276 276 276 277 280 276 271 274 275 279 284 287 291 297 302 306 309 312 315 317 320 324 329 333 334 335 335 337 339 336 338 344 347 351
296 292 288 285 282 281 279 276 274 272 271 272 273 275 276 275 275 278 279 282 288 293 297 300 304 308 310 313 315 317 321 326 331 333 335 335 336 339 338 338 340 348 351
297 293 288 282 278 276 277 277 276 273 273 273 274 272 271 272 280 282 283 285 287 289 293 297 302 306 309 311 314 314 319 323 328 331 334 335 336 339 342 339 341 349 355
303 299 294 288 283 277 273 270 268 269 273 274 275 275 271 271 275 279 283 285 286 288 291 295 299 303 305 308 310 309 313 321 324 329 332 334 335 336 342 343 343 348 355
305 303 299 294 290 285 280 277 276 273 270 269 269 271 271 271 271 274 279 282 284 288 291 294 296 301 302 304 306 305 308 315 320 324 326 330 331 332 335 341 341 345 352
311 308 304 299 294 291 285 281 277 274 274 273 272 271 271 271 272 275 277 281 285 289 291 293 296 297 298 300 302 303 305 311 316 319 324 327 329 327 330 335 341 342 347
314 311 307 302 297 297 291 288 282 279 277 275 274 274 274 272 273 275 277 282 286 289 290 292 295 294 294 295 297 301 304 307 311 312 317 325 327 325 321 327 335 341 339